Regional Weather Roundup
Issued by NWS

Home | Current Version | Previous Version | Text Only | Print | Product List | Glossary Off
Versions: 1 2 3 4 5 6 7 8 9 10 11 12 13 14 15 16 17 18 19 20 21 22 23 24 25 26 27 28 29 30 31 32 33 34 35 36 37 38 39 40 41 42 43 44 45 46 47 48 49 50

000
ASUS45 KBOU 290007
RWRCO

WEATHER ROUNDUP FOR COLORADO
NATIONAL WEATHER SERVICE DENVER/BOULDER CO
500 PM MST WED JAN 28 2015

NOTE: "FAIR" INDICATES FEW OR NO CLOUDS BELOW 12000 FEET WITH NO
SIGNIFICANT WEATHER AND/OR OBSTRUCTIONS TO VISIBILITY.

COZ001>005-013-030-031-290100-
...NORTHWEST COLORADO...

CITY           SKY/WX    TMP DP  RH WIND       PRES   REMARKS
CRAIG          CLOUDY    38  31  76 CALM      30.27R
HAYDEN         CLOUDY    37  28  70 SE5       30.27R
MEEKER         CLOUDY    42  29  59 SW8       30.25R
MOUNT WERNER   NOT AVBL
STEAMBOAT SPGS CLOUDY    38  28  67 SW3       30.27R
WALDEN         CLOUDY    34  27  75 SW5       30.26R WCI  30
$$

COZ006>008-011-290100-
...WEST CENTRAL VALLEYS...

CITY           SKY/WX    TMP DP  RH WIND       PRES   REMARKS
GRAND JUNCTION CLOUDY    49  33  54 N6        30.23R
MONTROSE       CLEAR     50  26  39 NW7       30.24R
EAGLE          MOCLDY    45  25  45 SW8       30.26R
RIFLE          CLOUDY    46  31  55 W8        30.24R
DELTA          MOCLDY    54  30  39 SW13      30.22R
NUCLA          CLEAR     48  27  43 NW5       30.27S
$$

COZ017>023-064>068-290100-
...SOUTHWEST COLORADO...

CITY           SKY/WX    TMP DP  RH WIND       PRES   REMARKS
DURANGO        PTCLDY    46  27  47 W10       30.22R
CORTEZ         CLEAR     49  29  46 W8        30.23R
PAGOSA SPRINGS PTCLDY    47  25  41 SW6       30.25R
TELLURIDE      PTCLDY    37  25  61 W13       30.29F
WOLF CREEK PAS NOT AVBL
$$

COZ009-010-012-014-032>034-037-058>063-290100-
...CENTRAL COLORADO...

CITY           SKY/WX    TMP DP  RH WIND       PRES   REMARKS
ASPEN          CLOUDY    38  26  62 CALM      30.26R
BUENA VISTA    CLEAR     41  17  37 NW18G25   30.20R
COPPER MTN     MOCLDY    27  16  63 W20G29    30.31R WCI  13
BERTHOUD PASS  HAZE      18  12  79 N22G36    30.27S VSB<1/4 WCI   0
COTTONWOOD PAS CLEAR     37  14  38 NW16G22   30.24S
GUNNISON       CLEAR     36  21  55 N3        30.29R
KREMMLING      CLOUDY    37  28  70 CALM      30.28R
LEADVILLE      MOCLDY    29  13  51 NW8       30.26S WCI  21
MONARCH PASS   PTCLDY    23  18  80 W30       30.39R WCI   5
SALIDA         CLEAR     45  19  36 SW15      30.27R
SUNLIGHT       MOCLDY    30  25  80 CALM      30.35R
WILKERSON PASS CLEAR     28  12  50 NW8G17    30.30R WCI  20
$$

COZ069>075-290100-
...SAN LUIS VALLEY/SANGRE DE CRISTO MOUNTAINS...

CITY           SKY/WX    TMP DP  RH WIND       PRES   REMARKS
ALAMOSA        MOCLDY    44  22  41 NE7       30.21R
LA VETA PASS   NOT AVBL
SAGUACHE       PTCLDY    39  25  56 NW14      30.23R
$$

COZ035-036-038>040-290100-
...NORTHERN COLORADO FRONT RANGE...

CITY           SKY/WX    TMP DP  RH WIND       PRES   REMARKS
DENVER INTL AP PTCLDY    52  23  32 N15       30.11R
DMNS CITY PARK   N/A     54  17  22 W6G12     30.12R
AURORA         PTCLDY    52  23  32 NE9       30.13R
FRONT RANGE AP NOT AVBL
ERIE MUNI ARPT CLEAR     55  16  22 NW9       30.10R
BOULDER MUN AP CLEAR     54  19  26 SW3       30.10R
CENTENNIAL     PTCLDY    53  19  26 N7        30.13R
BROOMFIELD     PTCLDY    55  18  22 S8        30.12R
FORT COLLINS   CLEAR     54  25  32 NW22      30.12R
LONGMONT       CLEAR     56  20  24 W9G23     30.12R
$$

COZ041-046-047-076>085-087-088-290100-
...PIKES PEAK/PALMER DIVIDE AND SOUTHERN FOOTHILLS...

CITY           SKY/WX    TMP DP  RH WIND       PRES   REMARKS
COLO. SPRINGS  PTCLDY    54  16  22 N6        30.13R
A. F. ACADEMY  CLEAR     49  18  29 NE10      30.13R
ELLICOTT       CLEAR    N/A N/A N/A NE13      30.12R
FALCON         CLEAR     47  18  31 N10       30.16R
FORT CARSON    PTCLDY    53  18  25 N12       30.10R
LIMON          CLEAR     49  27  42 N16       30.11R
MONUMENT HILL  CLEAR     43  19  39 N3        30.16R
TRINIDAD       CLOUDY    54  27  35 NW9       30.10R
$$

COZ042>045-048>051-090-091-290100-
...NORTHEAST COLORADO...

CITY           SKY/WX    TMP DP  RH WIND       PRES   REMARKS
GREELEY ARPT   MOCLDY    54  25  32 NW20      30.10R
AKRON          PTCLDY    47  34  60 N25G33    30.10R
BURLINGTON     CLEAR     52  34  50 NW16G26   30.07R
WRAY           PTCLDY    52  34  50 NW20G30   30.06R
STERLING       PTCLDY    50  37  62 N16       30.09R
HOLYOKE        PTCLDY    54  34  47 NW23G32   30.05R
FORT MORGAN    PTCLDY    46  34  62 N23       30.13R
$$

COZ086-089-092>099-290100-
...SOUTHEAST COLORADO...

CITY           SKY/WX    TMP DP  RH WIND       PRES   REMARKS
PUEBLO         PTCLDY    59  16  18 NW10      30.06R
LA JUNTA       MOCLDY    59  26  28 NE8G23    30.05R
LAMAR          PTCLDY    60  23  24 N14       30.02R
SPRINGFIELD      N/A     55  24  30 N10       30.05R
$$



USA.gov is the U.S. government's official web portal to all federal, state and local government web resources and services.